Dillingham, AK

6:55 PM AKDT on July 24, 2016 (GMT -0800)
Koliganek New Airport (New)

Weather History for PAJZ - March, 2014

Change the Weather History Date:

Wednesday, March 12, 2014

  Actual Average (PADQ) Record (PADQ)
Temperature  
Mean Temperature 12 °F 32 °F  
Max Temperature 30 °F 38 °F 49 °F (1991)
Min Temperature -5 °F 27 °F 3 °F (1966)
Degree Days  
Heating Degree Days 52 33  
Month to date heating degree days 396  
Since 1 July heating degree days 6269  
Cooling Degree Days 0    
Month to date cooling degree days  
Year to date cooling degree days  
Moisture  
Dew Point 13 °F    
Average Humidity 85    
Maximum Humidity 93    
Minimum Humidity 68    
Precipitation  
Precipitation 0.00 in 0.18 in 1.13 in (2014)
Month to date precipitation 2.16  
Year to date precipitation 16.59  
Snow  
Snow 0.00 in 0.40 in 3.50 in (1952)
Month to date snowfall 4.6  
Snow Depth -    
Sea Level Pressure  
Sea Level Pressure 29.19 in    
Wind  
Wind Speed 16 mph (East)    
Max Wind Speed 43 mph    
Max Gust Speed 55 mph    
Visibility 4 miles    
Events Fog    
T = Trace of Precipitation, MM = Missing Value Source: NWS Daily Summary

Daily Weather History Graph

Daily Weather History Graph

Search for Another Location

Airport or City:

Trip Planner

Search our weather history database for the weather conditions in past years. The results will help you decide how hot, cold, wet, or windy it might be!

Date:

Astronomy

Mar. 12, 2014 Rise Set
Actual Time 8:53 AM AKDT 8:24 PM AKDT
Civil Twilight 8:12 AM AKDT 9:05 PM AKDT
Nautical Twilight 7:24 AM AKDT 9:54 PM AKDT
Astronomical Twilight 6:33 AM AKDT 10:45 PM AKDT
Moon 4:25 PM AKDT (3/12) 7:15 AM AKDT (3/12)
Length of Visible Light 12h 53m
Length of Day
11h 31m
Waxing Gibbous, 86% of the Moon is Illuminated
Mar 12
Waxing Gibbous
Mar 16
Full
Mar 23
Last Quarter
Mar 30
New
Apr 7
First Quarter

Hourly Weather History & Observations

Time (AKDT) Temp. Windchill Dew Point Humidity Pressure Visibility Wind Dir Wind Speed Gust Speed Precip Events Conditions
12:56 AM 12.2 °F -6.7 °F 6.8 °F 79% 29.27 in 10.0 mi SSW 21.9 mph 27.6 mph N/A   Overcast
1:56 AM 10.0 °F -10.0 °F 5.0 °F 80% 29.27 in 10.0 mi SSW 23.0 mph - N/A   Overcast
2:56 AM 8.1 °F -12.2 °F 3.0 °F 80% 29.29 in 10.0 mi SSW 21.9 mph 25.3 mph N/A   Overcast
3:56 AM 6.8 °F -10.7 °F 1.4 °F 79% 29.35 in 10.0 mi South 15.0 mph - N/A   Overcast
4:56 AM 6.1 °F -13.8 °F 1.0 °F 80% 29.35 in 9.0 mi SSW 19.6 mph - N/A   Overcast
5:56 AM 2.1 °F -16.0 °F -2.9 °F 79% 29.36 in 10.0 mi South 13.8 mph - N/A   Overcast
6:56 AM -2.2 °F -10.4 °F -5.8 °F 85% 29.39 in 10.0 mi South 3.5 mph - N/A   Scattered Clouds
7:56 AM -0.9 °F - -4.9 °F 83% 29.39 in 10.0 mi Calm Calm - N/A   Clear
8:56 AM -4.9 °F - -8.9 °F 83% 29.41 in 10.0 mi Calm Calm - N/A   Clear
9:56 AM -5.8 °F - -9.4 °F 84% 29.43 in 10.0 mi Calm Calm - N/A   Clear
10:56 AM -1.8 °F - -6.0 °F 83% 29.42 in 10.0 mi Calm Calm - N/A   Clear
11:56 AM 1.0 °F - -4.0 °F 79% 29.42 in 10.0 mi Calm Calm - N/A   Clear
12:56 PM 5.0 °F - -2.2 °F 72% 29.42 in 10.0 mi Calm Calm - N/A   Clear
1:56 PM 9.1 °F - 2.1 °F 73% 29.38 in 10.0 mi Calm Calm - N/A   Clear
2:56 PM 13.1 °F - 7.2 °F 77% 29.35 in 10.0 mi Calm Calm - N/A   Partly Cloudy
3:56 PM 17.6 °F 4.3 °F 8.6 °F 68% 29.30 in 10.0 mi NE 12.7 mph - N/A   Mostly Cloudy
4:21 PM 17.6 °F 4.3 °F 10.4 °F 73% 29.27 in 2.5 mi NNE 12.7 mph - N/A   Haze
4:25 PM 17.6 °F 4.3 °F 10.4 °F 73% 29.26 in 1.8 mi NE 12.7 mph - N/A   Haze
4:28 PM 17.6 °F 4.3 °F 10.4 °F 73% 29.26 in 1.0 mi NE 12.7 mph - N/A   Haze
4:32 PM 17.6 °F 3.7 °F 12.2 °F 79% 29.26 in 0.5 mi NNE 13.8 mph - N/A   Haze
4:39 PM 17.6 °F 3.2 °F 12.2 °F 79% 29.25 in 0.2 mi NE 15.0 mph - N/A Fog Light Freezing Fog
4:56 PM 17.1 °F 3.0 °F 14.0 °F 88% 29.21 in 0.2 mi NE 13.8 mph - N/A Fog Light Freezing Fog
5:47 PM 17.6 °F 3.2 °F 15.8 °F 93% 29.16 in 0.2 mi NE 15.0 mph - N/A Fog Light Freezing Fog
5:56 PM 18.1 °F 3.9 °F 16.2 °F 92% 29.13 in 0.2 mi NE 15.0 mph - N/A Fog Light Freezing Fog
6:17 PM 19.4 °F 4.5 °F 17.6 °F 93% 29.12 in 0.2 mi NNE 17.3 mph - N/A Fog Light Freezing Fog
6:41 PM 19.4 °F 5.5 °F 17.6 °F 93% 29.10 in 0.2 mi NNE 15.0 mph - N/A Fog Light Freezing Fog
6:56 PM 19.4 °F 6.0 °F 17.6 °F 93% 29.07 in 0.2 mi NNE 13.8 mph - N/A Fog Light Freezing Fog
7:10 PM 21.2 °F 8.3 °F 19.4 °F 93% 29.06 in 0.8 mi NE 13.8 mph - N/A   Overcast
7:23 PM 23.0 °F 10.6 °F 21.2 °F 93% 29.04 in 1.2 mi NE 13.8 mph - N/A   Overcast
7:26 PM 23.0 °F 11.7 °F 21.2 °F 93% 29.04 in 2.0 mi NE 11.5 mph - N/A   Overcast
7:35 PM 26.6 °F 12.4 °F 24.8 °F 93% 29.03 in 3.0 mi East 21.9 mph 32.2 mph N/A   Overcast
7:37 PM 26.6 °F 12.0 °F 24.8 °F 93% 29.03 in 1.8 mi East 23.0 mph 32.2 mph N/A   Overcast
7:39 PM 28.4 °F 13.8 °F 26.6 °F 93% 29.02 in 1.0 mi East 25.3 mph 32.2 mph N/A   Overcast
7:42 PM 28.4 °F 13.8 °F 26.6 °F 93% 29.02 in 0.5 mi East 25.3 mph 33.4 mph N/A Fog Light Freezing Fog
7:56 PM 28.0 °F 12.5 °F 26.1 °F 92% 28.98 in 0.2 mi East 28.8 mph 42.6 mph N/A Fog Light Freezing Fog
8:13 PM 28.4 °F 12.7 °F 26.6 °F 93% 28.98 in 0.2 mi East 29.9 mph 40.3 mph N/A Fog Light Freezing Fog
8:48 PM 30.2 °F 14.1 °F 28.4 °F 93% 28.97 in 0.5 mi ESE 35.7 mph 43.7 mph N/A Fog Light Freezing Fog
8:56 PM 30.0 °F 13.4 °F 28.0 °F 92% 28.95 in 0.5 mi ESE 38.0 mph 50.6 mph N/A Fog Light Freezing Fog
9:12 PM 30.2 °F 14.3 °F 28.4 °F 93% 28.96 in 0.2 mi ESE 34.5 mph 49.5 mph N/A Fog Light Freezing Fog
9:14 PM 30.2 °F 14.7 °F 28.4 °F 93% 28.96 in 0.5 mi East 32.2 mph 49.5 mph N/A Fog Light Freezing Fog
9:26 PM 30.2 °F 14.1 °F 28.4 °F 93% 28.95 in 0.2 mi ESE 35.7 mph 49.5 mph N/A Fog Light Freezing Fog
9:35 PM 30.2 °F 12.9 °F 28.4 °F 93% 28.94 in 0.2 mi ESE 42.6 mph 55.2 mph N/A Fog Light Freezing Fog